Stations météo

Publicité
Colmar, France (7197): Température de l'air & dewpoint: 21.04.2018 02:00:00 - 27.04.2018 02:00:00 (CEST)Colmar, France (7197): Température de l'air 5cm: 21.04.2018 02:00:00 - 27.04.2018 02:00:00 (CEST)Colmar, France (7197): Température de l'air -20cm & Température de l'air -100cm: 21.04.2018 02:00:00 - 27.04.2018 02:00:00 (CEST)Colmar, France (7197): Vitesse du vent & gusts: 21.04.2018 02:00:00 - 27.04.2018 02:00:00 (CEST)Colmar, France (7197): Direction du vent: 21.04.2018 02:00:00 - 27.04.2018 02:00:00 (CEST)Colmar, France (7197): reduced air pressure: 21.04.2018 02:00:00 - 27.04.2018 02:00:00 (CEST)Colmar, France (7197): visibility: 21.04.2018 02:00:00 - 27.04.2018 02:00:00 (CEST)Colmar, France (7197): Ensoleillement: 21.04.2018 02:00:00 - 27.04.2018 02:00:00 (CEST)Colmar, France (7197): Quantités de précipitations: 21.04.2018 02:00:00 - 27.04.2018 02:00:00 (CEST)
Date & Time tt [°C] td [°C] tt 5cm [°C] tt -20cm [°C] tt -100cm [°C] ff [km/h] ff [knt] fx [km/h] fx [knt] dd ppp [hPa] vv [km] sd [min] rr [mm]
27.04.2018 02:00:00 7,9 3,9 6,7 16,3 13,7 2 1 8 4 N 1018,9 20 0 0,0
27.04.2018 01:00:00 8,2 4,8 5,8 16,7 13,7 5 3 7 4 NW 1019,3 20 0 0,0
27.04.2018 00:00:00 8,5 3,5 5,3 17,0 13,7 0 0 6 4 N 1019,6 20 0 0,0
26.04.2018 23:00:00 7,1 3,0 4,7 17,5 13,7 4 2 5 3 ENE 1020,0 20 0 0,0
26.04.2018 22:00:00 8,2 2,6 5,1 17,9 13,7 2 1 5 3 NE 1020,1 20 0 0,0
26.04.2018 21:00:00 11,4 1,6 8,0 18,2 13,7 5 3 15 8 NNW 1019,5 20 11 0,0
26.04.2018 20:00:00 13,5 1,8 13,1 18,3 13,7 11 6 23 13 NNW 1019,1 20 46 0,0
26.04.2018 19:00:00 15,7 0,7 15,9 18,4 13,7 13 7 24 13 NNW 1018,8 20 45 0,0
26.04.2018 18:00:00 15,9 1,6 17,0 18,2 13,7 10 6 30 16 NW 1018,8 20 15 0,0
26.04.2018 17:00:00 16,4 -1,2 18,1 17,9 13,7 5 3 23 12 NW 1018,9 20 5 0,0
26.04.2018 16:00:00 18,4 0,0 19,0 17,4 13,7 15 8 26 14 W 1019,1 20 39 0,0
26.04.2018 15:00:00 16,3 -0,4 17,3 17,0 13,7 12 7 24 13 W 1019,5 20 7 0,0
26.04.2018 14:00:00 16,6 2,9 18,0 16,6 13,7 11 6 22 12 NW 1019,8 20 25 0,0
26.04.2018 13:00:00 15,2 4,5 16,2 16,3 13,7 9 5 21 11 WSW 1020,6 20 14 0,0
26.04.2018 12:00:00 14,3 4,0 14,8 16,1 13,7 8 4 22 12 W 1021,1 20 5 0,0
26.04.2018 11:00:00 13,0 4,4 13,9 16,1 13,7 12 7 19 10 SW 1021,1 20 0 0,0
26.04.2018 10:00:00 12,9 5,1 13,2 16,2 13,7 8 5 18 10 WSW 1020,9 20 0 0,0
26.04.2018 09:00:00 12,3 6,6 12,0 16,3 13,7 11 6 23 13 W 1021,0 20 0 0,0
26.04.2018 08:00:00 11,6 7,7 10,5 16,6 13,7 14 8 22 12 WSW 1020,3 20 6 0,0
26.04.2018 07:00:00 10,4 8,8 10,1 16,9 13,7 9 5 14 8 SSW 1020,0 20 5 0,0
26.04.2018 06:00:00 10,9 8,6 10,0 17,2 13,6 10 5 16 9 SSW 1019,7 20 0 0,0
26.04.2018 05:00:00 12,0 4,9 10,4 17,5 13,6 7 4 18 10 SSW 1019,2 20 0 0,0
26.04.2018 04:00:00 12,6 6,6 10,5 17,8 13,6 10 6 23 12 WSW 1019,1 20 0 0,0
26.04.2018 03:00:00 12,4 9,2 11,0 18,1 13,6 7 4 16 9 SW 1018,1 20 0 0,4
26.04.2018 02:00:00 12,9 10,4 12,0 18,4 13,6 8 4 15 8 NNE 1017,8 20 0 0,0
26.04.2018 01:00:00 13,8 9,8 12,1 18,7 13,6 13 7 20 11 WSW 1017,3 20 0 0,0
26.04.2018 00:00:00 14,2 8,6 13,1 19,1 13,6 11 6 23 12 SE 1017,1 20 0 0,0
25.04.2018 23:00:00 15,4 6,7 13,8 19,6 13,6 9 5 22 12 SSW 1016,9 20 0 0,0
25.04.2018 22:00:00 16,4 7,9 15,3 20,0 13,6 12 7 43 23 WSW 1016,1 20 0 0,0
25.04.2018 21:00:00 17,9 7,0 16,8 20,3 13,6 23 13 40 22 W 1014,5 20 0 0,0
25.04.2018 20:00:00 19,4 8,1 18,9 20,6 13,6 21 12 37 20 W 1013,8 20 17 0,0
25.04.2018 19:00:00 20,5 8,5 20,4 20,6 13,6 18 10 34 19 WSW 1013,4 20 14 0,0
25.04.2018 18:00:00 21,7 9,6 22,3 20,4 13,6 19 10 35 19 W 1013,4 20 35 0,0
25.04.2018 17:00:00 21,6 10,4 21,8 20,0 13,6 20 11 39 21 WSW 1013,4 20 39 0,0
25.04.2018 16:00:00 22,5 10,0 23,1 19,5 13,6 19 11 42 23 W 1013,8 20 25 0,0
25.04.2018 15:00:00 22,9 8,2 24,5 18,8 13,6 31 17 52 28 SW 1014,1 20 57 0,0
25.04.2018 14:00:00 22,8 9,9 23,5 18,1 13,6 23 12 43 23 SW 1014,1 20 45 0,0
25.04.2018 13:00:00 22,5 9,3 24,3 17,4 13,6 26 14 46 25 WSW 1014,4 20 60 0,0
25.04.2018 12:00:00 21,1 8,4 22,3 16,8 13,5 30 16 57 31 SW 1014,9 20 60 0,0
25.04.2018 11:00:00 19,9 10,3 20,1 16,4 13,5 24 13 42 23 SSW 1014,9 20 42 0,0
25.04.2018 10:00:00 18,8 10,9 18,4 16,1 13,5 10 6 26 14 SSE 1014,8 20 41 0,0
25.04.2018 09:00:00 17,2 10,8 16,3 16,1 13,5 14 7 27 14 SSW 1015,0 20 60 0,0
25.04.2018 08:00:00 15,6 10,1 14,2 16,3 13,5 15 8 27 15 SSW 1014,6 20 60 0,0
25.04.2018 07:00:00 14,7 8,9 14,1 16,5 13,5 15 8 29 16 S 1014,1 20 13 0,0
25.04.2018 06:00:00 15,6 8,8 13,7 16,9 13,5 16 9 29 16 SSW 1013,9 20 0 0,0
25.04.2018 05:00:00 14,6 9,4 9,9 17,1 13,5 14 8 26 14 SSW 1014,2 20 0 0,0
25.04.2018 04:00:00 13,6 8,8 11,7 17,5 13,5 4 2 26 14 SE 1014,9 20 0 0,0
25.04.2018 03:00:00 14,8 9,4 12,7 17,8 13,5 14 8 23 13 S 1014,9 20 0 0,0
25.04.2018 02:00:00 14,8 9,2 13,4 18,2 13,5 11 6 24 13 SSW 1015,1 20 0 0,0
25.04.2018 01:00:00 14,9 9,3 10,9 18,6 13,5 12 7 19 11 S 1015,0 20 0 0,0
25.04.2018 00:00:00 15,3 8,5 13,5 19,0 13,5 8 4 16 9 SSW 1015,4 20 0 0,0
24.04.2018 23:00:00 15,9 8,6 10,8 19,5 13,5 7 4 11 6 S 1015,6 20 0 0,0
24.04.2018 22:00:00 14,0 8,8 11,1 19,9 13,5 5 3 8 4 S 1016,1 20 0 0,0
24.04.2018 21:00:00 16,2 8,4 12,5 20,2 13,5 3 2 10 6 S 1015,8 20 8 0,0
24.04.2018 20:00:00 19,2 8,2 18,0 20,4 13,5 10 5 16 9 W 1015,4 20 42 0,0
24.04.2018 19:00:00 22,3 7,7 23,4 20,3 13,5 13 7 21 12 W 1015,2 20 60 0,0
24.04.2018 18:00:00 23,5 7,1 25,6 20,0 13,5 11 6 24 13 WSW 1015,5 20 60 0,0
24.04.2018 17:00:00 23,3 8,2 26,2 19,5 13,5 12 6 23 12 WSW 1015,9 20 57 0,0
24.04.2018 16:00:00 23,3 8,2 26,5 18,9 13,5 8 5 24 13 WSW 1016,7 20 60 0,0
24.04.2018 15:00:00 23,0 8,3 26,8 18,1 13,5 12 7 24 13 SW 1017,5 19 60 0,0
24.04.2018 14:00:00 22,3 9,1 23,4 17,3 13,5 11 6 27 15 SW 1018,0 20 52 0,0
24.04.2018 13:00:00 21,4 9,9 24,2 16,6 13,5 16 9 30 16 SSW 1018,6 20 60 0,0
24.04.2018 12:00:00 20,2 10,3 21,9 15,9 13,5 16 9 27 14 SSW 1019,3 20 60 0,0
24.04.2018 11:00:00 19,3 12,6 18,7 15,4 13,5 13 7 23 13 SSW 1019,7 20 60 0,0
24.04.2018 10:00:00 17,2 13,1 15,7 15,1 13,5 12 7 23 12 SSW 1020,1 20 60 0,0
24.04.2018 09:00:00 14,6 12,6 13,0 15,1 13,5 11 6 18 10 S 1020,4 20 60 0,0
24.04.2018 08:00:00 12,2 11,9 10,4 15,3 13,5 12 7 19 11 SW 1020,6 10 44 0,0
24.04.2018 07:00:00 10,9 10,3 9,7 15,5 13,5 10 5 17 9 SW 1020,5 14 11 0,0
24.04.2018 06:00:00 10,8 10,3 9,7 15,7 13,5 8 4 14 8 SW 1020,3 6 0 0,0
24.04.2018 05:00:00 11,7 11,4 8,8 16,0 13,5 9 5 14 8 SSW 1020,4 12 0 0,0
24.04.2018 04:00:00 11,0 10,5 9,1 16,3 13,5 5 3 13 7 WSW 1020,3 4,8 0 0,0
24.04.2018 03:00:00 11,8 11,2 10,4 16,5 13,4 6 3 18 10 SSW 1020,2 7 0 0,0
24.04.2018 02:00:00 13,1 12,0 11,9 16,9 13,5 9 5 17 9 SSW 1020,0 19 0 0,0
24.04.2018 01:00:00 13,1 12,0 12,4 17,1 13,4 6 4 18 10 S 1020,2 20 0 0,0
24.04.2018 00:00:00 13,6 12,0 12,7 17,4 13,4 11 6 20 11 S 1020,2 20 0 0,0
23.04.2018 23:00:00 13,7 11,9 12,9 17,7 13,4 10 5 19 11 SSW 1020,0 20 0 0,0
23.04.2018 22:00:00 13,9 11,9 13,1 18,0 13,4 9 5 19 11 SSW 1019,8 20 0 0,0
23.04.2018 21:00:00 15,0 12,5 14,4 18,2 13,4 11 6 22 12 S 1019,0 20 6 0,0
23.04.2018 20:00:00 15,4 13,1 15,2 18,4 13,4 14 8 24 13 SSW 1018,4 20 43 0,0
23.04.2018 19:00:00 15,8 14,3 15,2 18,5 13,4 10 5 17 9 S 1018,4 20 4 0,0
23.04.2018 18:00:00 15,3 14,0 14,6 18,7 13,3 8 4 15 8 S 1018,9 20 0 1,2
23.04.2018 17:00:00 15,7 13,4 14,6 18,8 13,3 8 4 16 9 SSW 1019,0 18 0 0,6
23.04.2018 16:00:00 16,4 13,7 15,1 18,9 13,3 7 4 15 8 S 1018,8 20 0 0,6
23.04.2018 15:00:00 16,1 14,3 15,5 19,0 13,3 3 1 8 5 SSE 1019,0 19 0 0,6
23.04.2018 14:00:00 16,0 13,7 15,2 19,1 13,3 3 2 15 8 NE 1019,0 20 0 0,2
23.04.2018 13:00:00 16,3 12,6 15,2 19,2 13,2 7 4 19 10 NNE 1018,5 20 0 0,4
23.04.2018 12:00:00 15,8 13,5 14,3 19,2 13,2 8 4 46 25 NNW 1019,0 18 0 5,9
23.04.2018 11:00:00 21,4 9,6 22,3 19,1 13,2 7 4 19 11 ESE 1017,1 20 0 0,0
23.04.2018 10:00:00 21,0 10,2 20,6 19,0 13,2 5 3 13 7 SE 1016,7 20 15 0,0
23.04.2018 09:00:00 19,2 9,4 17,7 19,1 13,2 5 3 20 11 SSW 1016,5 20 12 0,0
23.04.2018 08:00:00 17,4 8,8 16,5 19,3 13,1 10 5 17 9 SSW 1016,2 20 9 0,0
23.04.2018 07:00:00 16,9 8,3 16,4 19,6 13,1 13 7 20 11 SSW 1015,9 20 0 0,0
23.04.2018 06:00:00 17,0 8,4 16,2 19,8 13,1 10 6 21 12 SSW 1015,9 20 0 0,0
23.04.2018 05:00:00 17,1 8,5 15,8 20,1 13,1 13 7 21 12 SSW 1015,9 20 0 0,0
23.04.2018 04:00:00 17,7 8,3 16,2 20,4 13,0 15 8 22 12 SSW 1015,8 20 0 0,0
23.04.2018 03:00:00 17,4 8,3 16,3 20,7 13,0 10 5 16 9 SSW 1015,6 20 0 0,0
23.04.2018 02:00:00 18,9 7,9 17,7 21,0 13,0 9 5 16 8 SSW 1015,5 20 0 0,0
23.04.2018 01:00:00 19,6 8,0 18,2 21,3 13,0 9 5 18 10 SSW 1015,4 20 0 0,0
23.04.2018 00:00:00 21,1 7,3 20,3 21,5 13,0 10 6 19 11 S 1014,9 20 0 0,0
22.04.2018 23:00:00 21,7 6,8 18,6 21,8 13,0 9 5 18 10 S 1014,8 20 0 0,0
22.04.2018 22:00:00 21,5 7,7 17,5 22,2 12,9 5 3 11 6 S 1014,5 20 0 0,0
22.04.2018 21:00:00 22,0 6,6 17,8 22,4 12,9 4 2 20 11 SW 1013,8 20 1 0,0
22.04.2018 20:00:00 23,9 7,1 22,5 22,6 12,9 12 6 22 12 W 1013,1 20 17 0,0
22.04.2018 19:00:00 26,3 7,8 26,0 22,6 12,9 15 8 30 16 SW 1012,5 20 0 0,0
22.04.2018 18:00:00 27,2 7,6 27,5 22,3 12,9 16 9 37 20 SW 1012,1 20 41 0,0
22.04.2018 17:00:00 29,2 6,5 31,8 21,8 12,9 21 11 39 21 SW 1012,1 20 60 0,0
22.04.2018 16:00:00 28,9 5,7 32,0 21,2 12,8 23 13 39 21 SSW 1012,6 20 60 0,0
22.04.2018 15:00:00 29,6 6,9 33,0 20,5 12,8 22 12 36 19 SSW 1013,1 20 60 0,0
22.04.2018 14:00:00 29,0 7,0 31,8 19,7 12,8 21 11 35 19 SW 1013,5 20 60 0,0
22.04.2018 13:00:00 28,0 8,3 29,6 19,0 12,8 17 9 29 16 SSW 1013,9 20 60 0,0
22.04.2018 12:00:00 26,3 9,2 27,0 18,4 12,8 17 9 30 16 S 1014,6 19 60 0,0
22.04.2018 11:00:00 24,6 9,7 23,8 18,0 12,7 17 9 33 18 SSW 1015,2 20 60 0,0
22.04.2018 10:00:00 22,2 10,3 20,3 17,9 12,7 11 6 23 12 S 1015,6 20 60 0,0
22.04.2018 09:00:00 19,4 10,1 16,8 18,0 12,7 16 9 26 14 S 1015,8 20 60 0,0
22.04.2018 08:00:00 16,2 9,8 12,8 18,3 12,7 9 5 19 11 SSW 1016,1 20 54 0,0
22.04.2018 07:00:00 13,3 9,7 10,8 18,6 12,7 9 5 13 7 SSW 1016,0 20 7 0,0
22.04.2018 06:00:00 12,8 9,1 9,6 18,9 12,6 7 4 12 7 SW 1016,1 20 0 0,0
22.04.2018 05:00:00 13,4 9,4 8,9 19,3 12,6 6 3 9 5 S 1016,3 20 0 0,0
22.04.2018 04:00:00 14,2 9,0 12,2 19,7 12,6 10 5 15 8 SSW 1016,4 20 0 0,0
22.04.2018 03:00:00 13,7 9,5 9,9 20,1 12,6 8 5 13 7 SW 1016,7 20 0 0,0
22.04.2018 02:00:00 13,0 9,8 9,8 20,6 12,6 6 3 9 5 S 1016,8 20 0 0,0
22.04.2018 01:00:00 13,2 9,8 10,3 21,0 12,6 5 3 9 5 S 1017,2 20 0 0,0
22.04.2018 00:00:00 14,5 9,9 11,1 21,4 12,5 4 2 5 3 W 1016,9 20 0 0,0
21.04.2018 23:00:00 16,0 9,9 12,1 21,9 12,5 0 0 5 3 N 1016,7 20 0 0,0
21.04.2018 22:00:00 19,8 9,7 14,2 22,3 12,5 5 3 10 5 N 1016,4 20 0 0,0
21.04.2018 21:00:00 21,3 9,8 16,8 22,6 12,5 7 4 10 5 N 1016,0 20 3 0,0
21.04.2018 20:00:00 24,3 10,2 21,1 22,7 12,5 2 1 7 4 NE 1015,4 20 12 0,0
21.04.2018 19:00:00 27,5 8,4 27,0 22,6 12,4 2 1 12 7 NE 1015,3 20 17 0,0
21.04.2018 18:00:00 29,2 7,1 32,2 22,2 12,4 2 1 15 8 SSW 1015,4 20 60 0,0
21.04.2018 17:00:00 29,2 7,7 32,5 21,7 12,4 9 5 18 10 SSW 1015,8 18 60 0,0
21.04.2018 16:00:00 29,4 7,9 33,5 20,9 12,4 6 3 14 8 WSW 1016,4 20 60 0,0
21.04.2018 15:00:00 29,0 8,1 33,5 20,0 12,4 5 3 20 11 ESE 1017,3 18 60 0,0
21.04.2018 14:00:00 28,3 9,6 34,6 19,1 12,4 6 3 13 7 ESE 1017,9 20 60 0,0
21.04.2018 13:00:00 27,1 9,4 29,9 18,2 12,3 4 2 19 10 NE 1018,7 20 60 0,0
21.04.2018 12:00:00 25,0 11,2 26,9 17,5 12,3 5 3 13 7 W 1019,5 20 60 0,0
21.04.2018 11:00:00 23,2 10,6 22,2 17,0 12,3 5 3 15 8 SSW 1020,2 20 60 0,0
21.04.2018 10:00:00 20,4 9,6 18,4 16,9 12,3 9 5 15 8 S 1020,4 20 60 0,0
21.04.2018 09:00:00 17,2 10,8 14,7 17,0 12,3 6 4 11 6 SSW 1020,9 20 60 0,0
21.04.2018 08:00:00 14,0 10,2 8,0 17,2 12,2 5 3 10 6 S 1021,1 20 60 0,0
21.04.2018 07:00:00 9,7 8,9 5,6 17,6 12,2 6 3 9 5 S 1021,2 20 6 0,0
21.04.2018 06:00:00 8,9 8,0 6,1 18,0 12,2 2 1 6 3 WSW 1020,9 18 0 0,0
21.04.2018 05:00:00 9,6 8,4 6,5 18,4 12,2 5 3 8 5 S 1020,8 20 0 0,0
21.04.2018 04:00:00 10,4 8,2 7,2 18,8 12,2 5 3 10 5 S 1021,0 20 0 0,0
21.04.2018 03:00:00 10,5 8,1 7,7 19,2 12,2 2 1 5 3 SSW 1021,0 20 0 -
21.04.2018 02:00:00 11,7 8,5 8,3 19,7 12,1 0 0 9 5 N 1021,1 20 0 0,0

tt = Température de l'air
td = dewpoint
tt 5cm = Température de l'air 5cm
tt -20cm = Température de l'air -20cm
tt -100cm = Température de l'air -100cm
ff = Vitesse du vent
fx = gusts
dd = Direction du vent
ppp = reduced air pressure
vv = visibility
sd = Ensoleillement
rr = Quantités de précipitations

stations d'obs. à proximité